Location: Béaulencourt
(50.0796°N, 2.8795°E)
Time: 08:43:42
(UTC+00:00)

SL-8 Rocket - Pass Details

Date: 20 January 2026
Orbit: 955 x 990 km, 82.9° (Epoch: 18 February)

Event Time Altitude Azimuth Distance (km) Brightness Sun altitude
Rises 05:45:39 0° 181° (S) 3,686 7.2 -17.5°
Reaches altitude 10° 05:48:10 10° 179° (S) 2,739 6.5 -17.1°
Maximum altitude 05:54:25 74° 96° (E) 1,023 4.2 -16.1°
Drops below altitude 10° 06:00:41 10° 13° (NNE) 2,737 6.3 -15.1°
Sets 06:03:11 0° 11° (NNE) 3,683 7.0 -14.7°
